SCP
4 4 3 3 2 1 2 2 2 1 1 1 1 1 1 1 1 2 2 4 4 4 3 3 3 2 2 2 2 2 2 1 1 1 1 1 1 1 1 1 1 1 1
5 5 4 3 2 2 2 2 2 2 1 1 1 1 1 1 1 2 2 3 4 4 3 3 3 3 3 3 2 2 2 2 1 1 1 1 1 1 1 1 1 1 1
6 6 5 4 3 2 2 2 2 2 2 1 1 1 1 1 1 2 2 3 3 3 3 4 4 4 4 4 4 3 3 2 2 2 2 1 1 1 1 1 1 1 1
5 5 4 3 3 2 3 3 2 2 2 2 1 1 1 1 1 2 2 3 3 3 3 4 4 4 4 4 4 4 4 3 3 3 2 2 2 1 1 1 1 1 1
4 5 4 3 3 3 3 3 3 2 2 2 2 1 1 1 2 2 3 3 3 3 3 3 4 4 4 4 4 4 4 4 4 3 3 3 2 2 2 1 1 1 1
4 5 5 4 3 3 3 3 3 3 3 3 2 1 1 2 2 3 4 4 4 4 3 4 4 4 4 4 4 4 4 4 4 4 4 3 3 3 3 2 2 1 1
7 6 5 5 4 4 4 4 4 4 4 4 4 3 2 2 3 5 6 6 5 4 3 4 5 5 4 4 4 4 4 4 4 4 4 4 4 4 3 3 3 2 2
10 9 7 7 6 6 6 7 7 6 6 6 6 5 5 4 4 6 7 7 6 5 4 5 6 6 5 5 4 4 4 4 4 4 4 4 4 4 4 4 3 3 2
14 13 11 10 9 8 8 9 9 9 8 7 7 7 7 6 6 6 6 7 7 8 7 6 6 6 5 5 5 4 3 3 3 3 3 3 3 3 4 4 3 3 2
17 16 14 12 11 10 10 10 10 10 9 8 7 7 7 8 8 7 6 6 7 9 9 8 6 5 5 6 6 5 3 2 2 2 3 3 3 3 3 3 3 2 2
19 17 15 14 12 11 11 12 11 11 10 8 7 7 7 8 9 8 6 5 6 7 7 7 5 5 4 5 6 5 3 2 1 2 2 3 3 3 3 2 2 2 2
17 16 15 13 12 11 11 12 12 12 10 8 7 6 7 7 7 7 6 5 5 4 4 5 5 4 4 4 5 4 3 2 1 1 1 2 2 3 3 3 2 2 2
14 14 13 12 11 10 10 10 11 11 9 8 6 5 5 5 5 5 5 4 3 3 3 3 4 4 4 4 3 3 2 1 1 0 0 1 1 2 2 3 3 2 2
11 12 13 13 12 10 9 8 8 8 7 6 5 5 4 4 4 4 4 4 3 2 2 3 3 4 4 4 3 2 2 1 1 0 0 0 1 1 1 2 2 2 2
10 11 14 14 13 10 8 7 7 6 6 5 4 4 4 4 4 4 4 4 3 3 3 3 3 4 4 3 2 2 2 1 1 0 0 0 0 0 0 1 1 1 1
10 11 13 13 12 10 8 7 6 6 6 5 4 4 4 4 4 4 4 4 4 4 3 3 4 4 5 4 3 3 3 2 1 1 1 1 0 0 0 0 0 1 1
11 11 11 11 11 10 8 7 6 6 6 6 5 4 4 4 4 5 5 5 5 5 4 3 4 6 6 5 4 4 3 2 1 1 0 0 0 0 0 0 0 0 0
11 10 10 11 11 10 9 7 5 5 5 6 6 5 5 5 5 6 7 8 7 6 5 4 4 6 7 7 6 4 3 2 1 0 0 0 0 0 0 0 0 0 0
9 9 9 9 10 10 9 7 5 4 4 5 5 5 5 5 5 6 7 8 9 7 6 4 4 6 8 8 6 4 2 2 1 1 0 0 0 0 0 0 0 0 0
7 7 8 8 7 7 8 7 6 6 5 4 4 5 4 4 5 6 7 7 8 7 6 5 4 6 7 7 5 3 3 3 2 1 1 0 0 0 0 0 0 0 0
7 7 7 7 7 6 5 6 6 6 6 5 5 5 5 5 5 5 5 5 6 6 5 5 5 6 7 5 3 2 2 3 3 2 2 1 1 1 0 0 0 0 0
7 8 8 8 7 6 4 4 5 6 7 6 6 6 6 5 5 4 4 4 4 4 4 5 6 7 7 5 3 2 2 2 2 2 2 2 1 1 1 1 0 0 0
7 8 8 8 8 6 3 2 3 5 7 7 7 7 6 6 5 5 4 3 3 3 3 4 6 7 7 5 3 2 1 1 2 2 2 1 1 1 2 2 1 0 0
7 7 7 8 8 6 3 1 2 5 7 7 6 7 7 6 6 5 4 4 3 2 2 3 4 5 4 3 2 2 1 2 2 2 2 1 1 1 2 2 2 1 0
7 7 6 6 7 6 3 1 2 5 6 6 7 7 6 6 5 5 5 4 3 2 1 1 2 2 2 1 1 1 1 2 2 2 2 2 2 2 2 3 2 1 0
8 7 6 6 6 5 4 2 2 5 6 6 7 7 6 5 5 4 4 4 3 2 1 1 1 1 1 1 0 1 1 2 2 3 3 3 3 3 3 3 2 1 0
Wind_Speed
1 2 1 1 1 1 2 1 1 2 1 0 1 2 2 3 4 4 4 9 9 9 8 7 7 6 5 5 5 4 4 4 5 5 6 5 5 5 5 5 4 4 4
2 2 2 2 1 1 2 2 2 2 1 1 1 1 2 3 4 4 4 6 9 9 8 7 7 6 5 5 4 5 4 4 5 5 6 6 5 6 5 4 4 4 4
2 2 2 2 1 1 2 2 2 2 2 1 1 1 1 2 3 3 4 4 5 7 8 7 7 6 6 5 5 5 5 5 5 6 6 6 6 6 5 5 5 4 4
2 2 2 2 1 1 2 2 2 1 1 1 1 1 1 2 2 3 3 4 3 4 6 8 7 7 6 6 6 5 5 5 5 6 6 6 6 6 5 5 5 5 5
2 1 2 1 1 1 1 1 2 1 1 1 0 1 1 1 2 2 3 3 3 3 3 6 8 8 7 7 6 6 6 5 6 6 6 6 6 6 6 6 6 6 5
2 1 2 1 1 1 1 1 2 1 1 1 1 1 1 1 1 1 2 2 2 4 4 4 4 5 7 7 7 6 6 6 6 6 6 6 6 6 5 5 5 5 5
3 1 1 2 1 1 1 1 1 0 0 0 1 0 1 2 2 2 1 1 2 2 3 4 3 3 4 6 7 6 6 7 6 6 6 6 6 6 6 6 6 6 5
2 3 2 1 1 1 1 1 1 1 1 1 1 1 1 0 0 2 2 3 3 2 2 4 3 3 3 3 4 7 6 6 6 6 5 4 5 6 6 7 7 6 6
3 2 2 1 2 1 1 1 1 2 1 1 0 1 1 1 0 0 2 1 1 1 1 2 3 3 4 3 3 5 6 5 5 6 5 5 5 5 5 6 6 6 6
3 3 2 2 1 1 1 2 1 1 1 1 1 1 1 1 1 0 1 1 1 1 1 1 1 2 3 3 3 5 6 5 5 5 5 5 5 5 5 5 6 6 6
2 3 2 2 2 1 2 2 1 1 1 1 1 1 1 1 2 1 1 1 1 1 1 1 1 1 2 3 3 4 6 6 5 5 5 5 5 5 4 5 5 5 5
2 2 2 2 2 2 2 2 2 2 2 2 1 1 1 1 1 1 2 2 2 1 1 1 2 2 2 3 3 5 6 6 5 5 5 5 5 5 5 5 5 5 5
2 3 3 3 2 2 2 2 2 2 2 2 2 2 2 2 1 1 1 2 1 1 2 2 2 2 3 3 3 6 6 7 6 5 5 5 5 5 5 5 5 5 5
2 3 3 3 3 3 3 3 2 3 2 2 3 2 2 2 1 1 1 1 1 2 2 2 2 2 2 3 5 6 4 6 6 6 6 5 5 5 5 4 4 4 4
1 2 3 3 3 3 3 3 3 3 2 3 3 3 2 2 1 1 1 1 2 2 2 2 1 2 2 3 5 4 4 6 7 7 7 6 6 5 5 5 4 4 4
1 2 2 2 2 3 3 3 2 3 3 3 2 3 2 2 1 1 1 2 2 2 2 2 1 2 2 2 4 3 4 8 8 8 8 8 8 7 6 6 5 5 4
2 2 2 2 3 2 3 3 3 3 3 3 3 3 3 2 2 2 2 2 2 1 2 2 1 1 1 2 3 3 4 5 5 9 9 9 9 9 8 7 6 5 5
2 2 2 3 3 3 3 3 3 3 3 4 3 3 3 3 3 2 2 2 2 1 2 3 2 2 2 2 3 3 3 4 3 8 10 10 10 9 9 8 7 6 6
2 2 2 3 3 3 3 3 3 3 3 3 3 4 3 3 3 3 2 3 2 2 2 2 3 2 2 2 2 3 3 2 3 4 9 10 10 10 9 9 8 8 7
3 2 2 3 2 2 2 3 3 3 3 3 3 3 3 4 3 3 3 3 2 3 2 2 3 2 2 2 2 2 2 2 2 3 3 6 9 10 10 9 9 8 7
3 2 2 3 2 2 2 1 2 3 3 3 4 4 4 4 3 3 3 2 3 3 3 3 3 3 2 2 3 2 2 2 2 2 2 2 3 4 6 8 9 9 9
2 2 2 2 2 2 1 0 1 2 3 3 3 3 3 4 4 4 5 4 4 5 4 3 3 3 3 3 2 3 2 2 2 2 2 2 2 3 4 4 8 10 10
2 2 2 2 2 1 1 1 2 3 3 3 3 2 3 3 3 3 4 5 5 6 7 5 4 4 4 3 3 3 3 3 3 2 2 3 2 2 3 4 10 10 11
2 3 3 3 2 2 2 1 2 3 3 3 3 3 2 1 1 1 2 3 4 4 5 5 5 5 4 3 3 4 4 3 3 3 3 3 2 2 2 2 8 11 11
2 3 3 3 2 2 2 2 2 3 2 3 3 2 1 1 2 2 2 3 4 4 4 4 5 5 5 5 3 2 3 3 3 3 2 2 2 2 2 3 5 10 11
2 2 2 2 2 2 2 2 1 3 3 2 2 2 2 2 3 3 3 4 4 4 3 3 4 5 5 5 6 5 4 4 3 3 3 2 2 1 2 2 2 4 5
Wind_Direction
149 129 118 114 153 146 155 165 138 117 130 137 123 125 126 121 120 126 134 144 146 148 150 153 151 149 150 155 160 159 161 163 161 165 169 164 162 156 154 158 164 171 177
111 114 113 115 126 114 119 130 120 117 117 104 96 107 124 130 130 137 144 149 155 157 156 155 156 156 159 161 162 159 158 158 158 159 160 158 154 150 152 153 160 170 177
115 125 119 114 102 118 122 113 116 130 139 143 149 124 119 130 139 147 150 152 157 165 167 168 167 166 169 168 163 163 165 165 165 162 164 163 160 154 153 159 160 166 173
130 133 113 112 142 119 109 124 130 121 113 127 136 139 131 137 158 164 162 163 163 164 176 179 177 177 178 179 179 174 166 166 164 166 172 174 172 169 170 175 175 175 180
141 136 116 127 155 127 120 143 120 115 119 121 156 149 138 165 173 165 148 155 165 165 164 173 181 183 183 185 188 187 182 177 173 171 175 177 179 181 183 185 185 188 189
153 160 137 149 154 121 103 86 93 115 162 189 206 136 162 189 174 160 172 166 173 171 172 174 174 186 190 191 191 190 188 188 184 185 191 192 189 186 185 184 184 186 191
149 171 144 153 173 124 116 122 112 152 189 153 106 72 189 178 157 179 159 151 192 186 169 166 171 173 175 186 188 187 194 198 197 200 200 198 195 194 195 194 196 197 196
155 177 172 173 151 127 142 159 163 178 218 187 175 191 200 163 205 179 160 182 191 193 182 175 167 165 161 161 174 188 195 197 195 195 194 191 191 196 200 203 204 203 202
159 171 176 187 150 150 153 176 191 195 222 228 209 219 209 187 234 213 191 174 162 187 190 168 166 167 173 164 167 181 187 188 188 191 191 189 191 193 199 205 206 205 205
168 172 183 182 168 167 160 205 199 233 221 239 249 238 266 100 184 225 268 204 182 182 194 184 137 150 162 152 148 155 170 179 186 190 189 191 196 201 206 211 212 211 212
169 170 172 176 190 183 185 216 190 222 238 245 249 259 258 234 216 198 227 247 260 201 176 186 173 167 168 160 156 148 163 173 179 192 194 197 199 202 207 213 216 217 222
172 175 180 175 191 191 196 201 189 214 245 266 265 260 249 247 236 222 218 222 232 238 203 191 190 186 185 166 160 159 169 173 179 189 192 198 205 208 213 219 223 228 233
175 185 188 181 193 192 192 194 199 222 233 251 259 269 275 269 253 241 234 238 237 243 215 216 203 188 187 148 157 165 175 180 182 187 194 199 207 216 218 220 226 235 243
178 176 184 184 190 192 196 192 211 219 213 229 244 245 264 274 273 261 226 240 264 262 224 215 200 181 174 154 166 175 176 183 186 191 195 198 206 211 213 217 226 242 251
187 166 181 192 201 202 206 198 218 221 209 220 235 238 243 260 257 266 243 231 245 267 267 225 209 182 171 156 174 187 171 190 196 199 199 199 204 213 214 216 222 234 241
204 187 176 194 213 207 207 210 220 220 215 219 219 227 236 246 246 250 255 259 255 255 263 247 233 193 184 183 183 189 179 190 202 199 200 198 204 212 215 216 219 224 227
196 191 182 199 214 210 205 215 225 222 219 220 220 220 225 226 241 260 258 262 266 262 262 273 268 198 194 194 189 208 191 195 200 203 201 201 205 210 212 213 217 220 220
196 204 203 206 213 208 207 212 221 226 225 220 220 222 227 225 225 251 267 267 261 254 241 263 266 236 226 208 201 216 225 222 204 200 201 204 205 209 211 212 213 215 217
200 205 214 222 225 216 214 217 221 225 229 226 220 221 225 231 237 232 244 258 257 260 239 248 263 252 237 227 215 229 238 235 238 209 202 206 207 207 209 210 210 211 213
204 206 214 230 229 227 223 223 219 228 228 229 229 226 220 221 237 241 238 239 254 264 257 250 256 248 235 233 226 227 239 222 244 243 215 202 204 206 209 209 207 207 210
210 209 212 223 226 222 231 238 237 239 238 237 232 225 222 214 211 230 250 248 249 252 255 249 249 247 238 225 228 234 242 237 232 227 220 220 194 195 202 209 208 207 208
204 208 216 230 237 238 218 97 286 262 253 249 249 240 220 212 211 218 235 245 246 248 251 250 250 248 242 238 237 241 246 245 252 220 221 241 212 206 200 195 197 200 207
203 209 214 225 228 223 234 260 291 275 263 256 253 254 258 244 215 224 236 245 251 252 243 245 251 252 245 234 230 243 244 247 261 238 242 256 234 231 220 199 192 198 204
216 222 220 223 218 212 206 238 285 264 261 254 247 242 236 265 287 278 264 262 262 260 250 238 244 251 253 248 233 238 248 256 262 248 218 250 241 245 236 205 199 199 204
233 232 224 222 212 189 204 218 273 265 252 258 257 262 223 200 265 284 265 268 274 271 271 260 244 240 237 242 234 232 240 241 257 254 230 227 242 245 236 217 207 205 210
240 247 236 227 218 175 181 190 240 273 268 263 242 235 225 232 240 247 256 259 262 274 280 276 263 249 234 230 223 213 224 239 253 258 235 223 233 232 257 227 193 195 214